Hot Springs, VA

11:21 AM EDT on April 25, 2018 (GMT -0400)
Ingalls

Weather History for KHSP - December, 2000

Change the Weather History Date:

Sunday, December 31, 2000

  Actual Average Record
Temperature  
Mean Temperature 12 °F -  
Max Temperature 17 °F 33 °F 55 °F (2002)
Min Temperature 6 °F 20 °F 2 °F (2017)
Degree Days  
Heating Degree Days 54    
Moisture  
Dew Point 8 °F    
Average Humidity 90    
Maximum Humidity 100    
Minimum Humidity 68    
Precipitation  
Precipitation 0.00 in - - ()
Sea Level Pressure  
Sea Level Pressure 29.79 in    
Wind  
Wind Speed 26 mph (WNW)    
Max Wind Speed 32 mph    
Max Gust Speed 45 mph    
Visibility 10 miles    
Events      
Averages and records for this station are not official NWS values.
T = Trace of Precipitation, MM = Missing Value Source: NWS Daily Summary

Daily Weather History Graph

Daily Weather History Graph

Search for Another Location

Airport or City:

Astronomy

Dec. 31, 2000 Rise Set
Actual Time 7:35 AM EST 5:10 PM EST
Civil Twilight 7:05 AM EST 5:39 PM EST
Nautical Twilight 6:32 AM EST 6:12 PM EST
Astronomical Twilight 6:00 AM EST 6:44 PM EST
Moon 11:21 AM EST (12/31) 10:42 PM EST (12/31)
Length of Visible Light 10h 33m
Length of Day
9h 34m
Waxing Crescent, 29% of the Moon is Illuminated
Dec 31
Waxing Crescent
Jan 2
First Quarter
Jan 9
Full
Jan 16
Last Quarter
Jan 24
New

Hourly Weather History & Observations

Time (EST) Temp. Windchill Dew Point Humidity Pressure Visibility Wind Dir Wind Speed Gust Speed Precip Events Conditions
12:00 AM 6.8 °F -16.2 °F 6.8 °F 100% 29.63 in 10.0 mi WNW 28.8 mph 40.3 mph N/A   Overcast
12:21 AM 6.8 °F -16.6 °F 3.2 °F 85% 29.64 in 10.0 mi WNW 29.9 mph 39.1 mph N/A   Mostly Cloudy
12:39 AM 6.8 °F -15.5 °F 5.0 °F 92% 29.65 in 10.0 mi WNW 26.5 mph 34.5 mph N/A   Mostly Cloudy
1:00 AM 6.8 °F -15.9 °F 5.0 °F 92% 29.64 in 10.0 mi WNW 27.6 mph 35.7 mph N/A   Overcast
1:19 AM 6.8 °F -15.1 °F 5.0 °F 92% 29.65 in 10.0 mi WNW 25.3 mph 39.1 mph N/A   Overcast
1:39 AM 6.8 °F -13.8 °F 6.8 °F 100% 29.65 in 10.0 mi WNW 21.9 mph 36.8 mph N/A   Overcast
1:59 AM - - - N/A% 29.66 in 10.0 mi WNW 20.7 mph 35.7 mph N/A   Overcast
2:19 AM 6.8 °F -14.7 °F 6.8 °F 100% 29.66 in 10.0 mi WNW 24.2 mph 33.4 mph N/A   Overcast
2:39 AM 6.8 °F -16.9 °F 6.8 °F 100% 29.66 in 7.0 mi WNW 31.1 mph 43.7 mph N/A   Overcast
2:59 AM 6.8 °F -15.5 °F 6.8 °F 100% 29.68 in 10.0 mi WNW 26.5 mph 39.1 mph N/A   Overcast
3:19 AM 6.8 °F -15.5 °F 6.8 °F 100% 29.69 in 10.0 mi WNW 26.5 mph 34.5 mph N/A   Overcast
3:40 AM 6.8 °F -14.3 °F 6.8 °F 100% 29.70 in 10.0 mi WNW 23.0 mph 34.5 mph N/A   Overcast
4:01 AM 6.8 °F -15.9 °F 6.8 °F 100% 29.70 in 10.0 mi WNW 27.6 mph 35.7 mph N/A   Overcast
4:20 AM 6.8 °F -16.2 °F 6.8 °F 100% 29.70 in 10.0 mi WNW 28.8 mph 34.5 mph N/A   Overcast
4:39 AM 6.8 °F -16.6 °F 6.8 °F 100% 29.70 in 10.0 mi WNW 29.9 mph 35.7 mph N/A   Mostly Cloudy
5:00 AM 6.8 °F -16.2 °F 6.8 °F 100% 29.70 in 10.0 mi WNW 28.8 mph 36.8 mph N/A   Mostly Cloudy
5:19 AM 6.8 °F -17.3 °F 6.8 °F 100% 29.71 in 10.0 mi WNW 32.2 mph 39.1 mph N/A   Mostly Cloudy
5:39 AM 6.8 °F -15.5 °F 6.8 °F 100% 29.72 in 10.0 mi WNW 26.5 mph 34.5 mph N/A   Overcast
5:59 AM 6.8 °F -15.5 °F 6.8 °F 100% 29.73 in 10.0 mi NW 26.5 mph 34.5 mph N/A   Overcast
6:19 AM 6.8 °F -15.9 °F 6.8 °F 100% 29.74 in 10.0 mi WNW 27.6 mph 38.0 mph N/A   Overcast
6:41 AM 6.8 °F -15.5 °F 6.8 °F 100% 29.75 in 10.0 mi WNW 26.5 mph 35.7 mph N/A   Overcast
6:59 AM 8.6 °F -13.8 °F 8.6 °F 100% 29.76 in 10.0 mi WNW 28.8 mph 34.5 mph N/A   Overcast
7:19 AM 8.6 °F -12.3 °F 8.6 °F 100% 29.77 in 10.0 mi WNW 24.2 mph 33.4 mph N/A   Overcast
7:39 AM 8.6 °F -12.7 °F 8.6 °F 100% 29.79 in 10.0 mi WNW 25.3 mph 33.4 mph N/A   Overcast
7:59 AM 8.6 °F -12.7 °F 8.6 °F 100% 29.79 in 10.0 mi WNW 25.3 mph - N/A   Overcast
8:19 AM 8.6 °F -12.7 °F 8.6 °F 100% 29.79 in 10.0 mi WNW 25.3 mph 33.4 mph N/A   Overcast
8:39 AM 10.4 °F -11.0 °F 10.4 °F 100% 29.81 in 7.0 mi WNW 27.6 mph 33.4 mph N/A   Overcast
8:59 AM 10.4 °F -10.3 °F 8.6 °F 92% 29.82 in 5.0 mi WNW 25.3 mph 32.2 mph N/A   Overcast
9:19 AM 10.4 °F -10.3 °F 8.6 °F 92% 29.82 in 4.0 mi WNW 25.3 mph 31.1 mph N/A   Overcast
9:39 AM 10.4 °F -9.5 °F 10.4 °F 100% 29.83 in 5.0 mi WNW 23.0 mph 34.5 mph N/A   Overcast
9:59 AM 10.4 °F -11.7 °F 10.4 °F 100% 29.84 in 7.0 mi WNW 29.9 mph 33.4 mph N/A   Overcast
10:19 AM 12.2 °F -8.9 °F 10.4 °F 92% 29.84 in 7.0 mi WNW 28.8 mph 35.7 mph N/A   Overcast
10:39 AM 12.2 °F -7.5 °F 10.4 °F 92% 29.84 in 10.0 mi WNW 24.2 mph 31.1 mph N/A   Overcast
10:59 AM 12.2 °F -8.2 °F 10.4 °F 92% 29.84 in 10.0 mi WNW 26.5 mph 35.7 mph N/A   Overcast
11:19 AM 14.0 °F -6.2 °F 10.4 °F 86% 29.84 in 10.0 mi WNW 27.6 mph 33.4 mph N/A   Overcast
11:39 AM 14.0 °F -5.8 °F 10.4 °F 86% 29.84 in 10.0 mi WNW 26.5 mph 35.7 mph N/A   Overcast
11:59 AM 14.0 °F -4.3 °F 10.4 °F 86% 29.84 in 10.0 mi WNW 21.9 mph 32.2 mph N/A   Overcast
12:21 PM 14.0 °F -4.3 °F 10.4 °F 86% 29.84 in 10.0 mi WNW 21.9 mph 34.5 mph N/A   Overcast
12:39 PM 15.8 °F -4.1 °F 10.4 °F 79% 29.84 in 10.0 mi WNW 28.8 mph 41.4 mph N/A   Overcast
12:59 PM 15.8 °F -3.1 °F 12.2 °F 86% 29.84 in 10.0 mi WNW 25.3 mph 33.4 mph N/A   Overcast
1:21 PM 15.8 °F -3.1 °F 12.2 °F 86% 29.84 in 10.0 mi WNW 25.3 mph 36.8 mph N/A   Overcast
1:39 PM 15.8 °F -2.7 °F 10.4 °F 79% 29.84 in 10.0 mi WNW 24.2 mph 35.7 mph N/A   Mostly Cloudy
1:59 PM 17.6 °F 0.1 °F 12.2 °F 79% 29.84 in 10.0 mi WNW 23.0 mph 34.5 mph N/A   Scattered Clouds
2:19 PM 17.6 °F 0.1 °F 8.6 °F 68% 29.84 in 10.0 mi WNW 23.0 mph 40.3 mph N/A   Scattered Clouds
2:39 PM 17.6 °F -1.0 °F 10.4 °F 73% 29.85 in 10.0 mi WNW 26.5 mph 44.9 mph N/A   Mostly Cloudy
2:59 PM 17.6 °F -1.6 °F 10.4 °F 73% 29.84 in 10.0 mi WNW 28.8 mph 38.0 mph N/A   Mostly Cloudy
3:20 PM 15.8 °F -4.1 °F 8.6 °F 73% 29.84 in 10.0 mi WNW 28.8 mph 35.7 mph N/A   Scattered Clouds
3:39 PM 17.6 °F 0.5 °F 8.6 °F 68% 29.86 in 10.0 mi WNW 21.9 mph 36.8 mph N/A   Mostly Cloudy
3:59 PM 15.8 °F -1.1 °F 6.8 °F 68% 29.88 in 10.0 mi NW 19.6 mph 35.7 mph N/A   Mostly Cloudy
4:19 PM 15.8 °F -2.7 °F 6.8 °F 68% 29.88 in 10.0 mi WNW 24.2 mph 34.5 mph N/A   Overcast
4:39 PM 14.0 °F -3.9 °F 8.6 °F 79% 29.89 in 10.0 mi NW 20.7 mph 34.5 mph N/A   Overcast
4:59 PM 14.0 °F -5.1 °F 8.6 °F 79% 29.89 in 10.0 mi WNW 24.2 mph 36.8 mph N/A   Overcast
5:19 PM 12.2 °F -6.3 °F 8.6 °F 85% 29.90 in 10.0 mi NW 20.7 mph 34.5 mph N/A   Overcast
5:39 PM 12.2 °F -7.5 °F 8.6 °F 85% 29.91 in 10.0 mi NW 24.2 mph 31.1 mph N/A   Mostly Cloudy
5:59 PM 12.2 °F -6.7 °F 8.6 °F 85% 29.92 in 10.0 mi WNW 21.9 mph 35.7 mph N/A   Mostly Cloudy
6:19 PM 12.2 °F -7.9 °F 8.6 °F 85% 29.92 in 10.0 mi WNW 25.3 mph 34.5 mph N/A   Scattered Clouds
6:39 PM 12.2 °F -7.5 °F 8.6 °F 85% 29.93 in 10.0 mi WNW 24.2 mph 34.5 mph N/A   Scattered Clouds
6:59 PM 12.2 °F -8.6 °F 8.6 °F 85% 29.93 in 10.0 mi WNW 27.6 mph 34.5 mph N/A   Scattered Clouds
7:19 PM 12.2 °F -8.2 °F 8.6 °F 85% 29.92 in 10.0 mi WNW 26.5 mph 36.8 mph N/A   Scattered Clouds
7:39 PM 12.2 °F -7.9 °F 8.6 °F 85% 29.93 in 10.0 mi WNW 25.3 mph 33.4 mph N/A   Scattered Clouds
7:59 PM 12.2 °F -7.1 °F 10.4 °F 92% 29.91 in 10.0 mi WNW 23.0 mph 36.8 mph N/A   Scattered Clouds
8:19 PM 12.2 °F -7.1 °F 10.4 °F 92% 29.92 in 10.0 mi WNW 23.0 mph 33.4 mph N/A   Scattered Clouds
8:39 PM 12.2 °F -8.2 °F 10.4 °F 92% 29.93 in 10.0 mi NW 26.5 mph 36.8 mph N/A   Mostly Cloudy
8:59 PM 12.2 °F -6.3 °F 10.4 °F 92% 29.94 in 10.0 mi WNW 20.7 mph 31.1 mph N/A   Mostly Cloudy
9:19 PM 12.2 °F -5.8 °F 10.4 °F 92% 29.95 in 10.0 mi WNW 19.6 mph 29.9 mph N/A   Overcast
9:39 PM 12.2 °F -6.3 °F 10.4 °F 92% 29.96 in 10.0 mi WNW 20.7 mph 26.5 mph N/A   Overcast
9:59 PM 12.2 °F -6.3 °F 10.4 °F 92% 29.96 in 10.0 mi WNW 20.7 mph 26.5 mph N/A   Overcast
10:19 PM 12.2 °F -6.3 °F 10.4 °F 92% 29.96 in 10.0 mi NW 20.7 mph 29.9 mph N/A   Overcast
10:41 PM 12.2 °F -4.8 °F 10.4 °F 92% 29.97 in 7.0 mi WNW 17.3 mph 29.9 mph N/A   Overcast
10:59 PM 12.2 °F -4.8 °F 10.4 °F 92% 29.97 in 10.0 mi WNW 17.3 mph 31.1 mph N/A   Overcast
11:19 PM 12.2 °F -3.1 °F 10.4 °F 92% 29.98 in 10.0 mi WNW 13.8 mph 27.6 mph N/A   Overcast
11:39 PM 12.2 °F -4.8 °F 10.4 °F 92% 29.98 in 10.0 mi WNW 17.3 mph 25.3 mph N/A   Overcast